Weather in Ashgabat

Turkmenistan     37°56′06″N   58°22′44″E
temp.,
°C
wind,
m/s
gust,
m/s
humid.,
%
clouds,
%
prec.,
mm/h
press.,
hPa
HPBL,
m
25 january, tue
tue2523:00+6ese22350 0.0 102024
02:00+5e22370 0.0 102118
05:00+5e22400 0.0 102112
08:00+4e22450 0.0 102315
11:00+7e33400 0.0 1023200
14:00+11e33290 0.0 1022605
17:00+12e44265 0.0 1021697
20:00+8e47374 0.0 1023200
26 january, wed
wed2623:00+7e36410 0.0 1024146
02:00+5ese35440 0.0 1024113
05:00+5ese354754 0.0 102395
08:00+4ese3547100 0.0 1023113
11:00+7e5736100 0.0 1023299
14:00+12ese7824100 0.0 1020733
17:00+13e79235 0.0 1019721
20:00+9e511300 0.0 1018348
27 january, thu
thu2723:00+8e49330 0.0 1017198
02:00+6e35380 0.0 1016106
05:00+5e33400 0.0 101553
08:00+6e324060 0.0 101425
11:00+9e22301 0.0 1013111
14:00+14ne11220 0.0 1010322
17:00+15ne0120100 0.0 1008233
20:00+13ssw1224100 0.1 100813
28 january, fri
fri2823:00+11nw26636 0.2 1007157
02:00+10wnw117814 0.0 100610
05:00+9wnw7114168 0.0 1008403
08:00+6nw587852 0.0 1012497
11:00+8wnw6868100 0.0 1014646
14:00+11nw564695 0.0 10141156
17:00+11nnw884951 0.0 1015749
20:00+10wnw594111 0.0 1019397
29 january, sat
sat2923:00+7nnw47555 0.0 1022292
02:00+5n12694 0.0 1024222
05:00+4e22725 0.0 1026155
08:00+3ese33776 0.0 1027107
11:00+6ese45625 0.0 1028687
14:00+9e66465 0.0 10251061
17:00+11e66425 0.0 10241211
20:00+8ene48515 0.0 1025329